FW5165 Weather Reports


Display with metric or nautical units.
time (UTC)temp
F
wind
direction
speed
MPH
gust
MPH
rain 1hr
in
rain 24hr
in
rain mn
in
humidity
%
barometer
mb
20260831232048 78 210 8.0 13.0 0.00 0.00 0.00 46 1012.1
20260831231548 78 188 9.0 13.0 0.00 0.00 0.00 47 1012.1
20260831231048 77 235 7.0 12.0 0.00 0.00 0.00 47 1012.2
20260831230547 78 182 6.0 12.0 0.00 0.00 0.00 47 1012.2
20260831230047 77 157 6.0 14.0 0.00 0.00 0.00 46 1012.3
20260831225546 77 234 7.0 14.0 0.00 0.00 0.00 49 1012.5
20260831225046 77 214 8.0 13.0 0.00 0.00 0.00 48 1012.4
20260831224546 77 360 9.0 13.0 0.00 0.00 0.00 47 1012.5
20260831224046 77 360 8.0 15.0 0.00 0.00 0.00 46 1012.5
20260831223545 77 360 8.0 15.0 0.00 0.00 0.00 47 1012.5
20260831223046 77 360 6.0 12.0 0.00 0.00 0.00 48 1012.6
20260831222543 77 360 7.0 11.0 0.00 0.00 0.00 48 1012.6
20260831222043 76 360 6.0 14.0 0.00 0.00 0.00 48 1012.6
20260831221554 76 360 8.0 14.0 0.00 0.00 0.00 48 1012.8
20260831221043 77 360 8.0 12.0 0.00 0.00 0.00 48 1012.6
20260831220543 77 360 8.0 13.0 0.00 0.00 0.00 48 1012.9
20260831220050 76 360 5.0 13.0 0.00 0.00 0.00 49 1012.9
20260831215543 76 190 8.0 13.0 0.00 0.00 0.00 49 1012.9
20260831215043 76 360 6.0 12.0 0.00 0.00 0.00 48 1012.9
20260831214541 76 360 7.0 13.0 0.00 0.00 0.00 49 1013.0
20260831214040 75 360 8.0 14.0 0.00 0.00 0.00 48 1013.0
20260831213540 75 360 9.0 16.0 0.00 0.00 0.00 48 1013.0
20260831213040 75 360 8.0 16.0 0.00 0.00 0.00 48 1013.1
20260831212540 75 360 9.0 14.0 0.00 0.00 0.00 48 1013.1
20260831212042 75 360 8.0 14.0 0.00 0.00 0.00 50 1013.1
20260831211540 75 360 6.0 11.0 0.00 0.00 0.00 49 1013.1
20260831211038 75 360 8.0 13.0 0.00 0.00 0.00 49 1013.2
20260831210540 75 360 10.0 13.0 0.00 0.00 0.00 49 1013.2
20260831210038 74 360 7.0 13.0 0.00 0.00 0.00 50 1013.2
20260831205538 74 360 7.0 13.0 0.00 0.00 0.00 50 1013.3
20260831205039 75 360 8.0 13.0 0.00 0.00 0.00 49 1013.2
20260831204543 74 360 4.0 13.0 0.00 0.00 0.00 52 1013.3
20260831204037 75 360 8.0 13.0 0.00 0.00 0.00 52 1013.3
20260831203537 75 360 8.0 12.0 0.00 0.00 0.00 50 1013.4
20260831203037 75 360 7.0 15.0 0.00 0.00 0.00 49 1013.3
20260831202535 74 360 7.0 15.0 0.00 0.00 0.00 51 1013.4
20260831202035 74 360 9.0 13.0 0.00 0.00 0.00 52 1013.4
20260831201535 74 360 8.0 13.0 0.00 0.00 0.00 51 1013.3
20260831201039 74 360 8.0 12.0 0.00 0.00 0.00 53 1013.4
20260831200532 74 360 7.0 15.0 0.00 0.00 0.00 54 1013.4
20260831200042 73 360 8.0 16.0 0.00 0.00 0.00 53 1013.4
20260831195533 73 360 9.0 16.0 0.00 0.00 0.00 52 1013.4
20260831195032 73 360 7.0 15.0 0.00 0.00 0.00 54 1013.5
20260831194532 74 360 9.0 13.0 0.00 0.00 0.00 52 1013.5
20260831194032 73 360 8.0 12.0 0.00 0.00 0.00 53 1013.7
20260831193533 74 360 6.0 13.0 0.00 0.00 0.00 53 1013.6
20260831193037 74 360 7.0 13.0 0.00 0.00 0.00 53 1013.6
20260831192530 74 360 6.0 13.0 0.00 0.00 0.00 52 1013.7
20260831192033 74 167 6.0 16.0 0.00 0.00 0.00 53 1013.8
20260831191534 73 204 7.0 16.0 0.00 0.00 0.00 55 1013.7
20260831191028 72 360 6.0 16.0 0.00 0.00 0.00 54 1013.7
20260831190528 73 360 9.0 16.0 0.00 0.00 0.00 55 1013.8
20260831190028 73 360 5.0 11.0 0.00 0.00 0.00 54 1013.7
20260831185526 73 360 6.0 12.0 0.00 0.00 0.00 55 1013.7
20260831185025 72 360 8.0 12.0 0.00 0.00 0.00 55 1013.7
20260831184527 72 360 6.0 11.0 0.00 0.00 0.00 54 1013.7
20260831184025 72 360 7.0 13.0 0.00 0.00 0.00 55 1013.7
20260831183525 72 360 7.0 13.0 0.00 0.00 0.00 54 1013.7
20260831183025 72 360 6.0 11.0 0.00 0.00 0.00 55 1013.7
20260831182525 72 360 7.0 13.0 0.00 0.00 0.00 55 1013.7
20260831182025 71 360 8.0 13.0 0.00 0.00 0.00 55 1013.7
20260831181526 71 360 8.0 13.0 0.00 0.00 0.00 57 1013.7
20260831181025 71 360 7.0 10.0 0.00 0.00 0.00 56 1013.7
20260831180523 70 360 7.0 10.0 0.00 0.00 0.00 58 1013.7
20260831180038 70 360 7.0 11.0 0.00 0.00 0.00 58 1013.7
20260831175523 70 202 7.0 11.0 0.00 0.00 0.00 57 1013.6
20260831175023 69 360 5.0 11.0 0.00 0.00 0.00 59 1013.7
20260831174524 69 360 7.0 11.0 0.00 0.00 0.00 60 1013.6
20260831174025 69 360 6.0 10.0 0.00 0.00 0.00 61 1013.6
20260831173621 69 360 4.0 11.0 0.00 0.00 0.00 61 1013.5
20260831173020 68 360 8.0 13.0 0.00 0.00 0.00 61 1013.5
20260831172519 68 360 7.0 10.0 0.00 0.00 0.00 62 1013.6
20260831172019 68 360 6.0 10.0 0.00 0.00 0.00 62 1013.6
20260831171520 68 360 4.0 9.0 0.00 0.00 0.00 63 1013.6
20260831171019 67 360 6.0 10.0 0.00 0.00 0.00 63 1013.6
20260831170519 67 360 6.0 10.0 0.00 0.00 0.00 63 1013.5
20260831170019 67 360 5.0 11.0 0.00 0.00 0.00 63 1013.6
20260831165519 66 360 7.0 11.0 0.00 0.00 0.00 63 1013.6
20260831165018 66 360 6.0 10.0 0.00 0.00 0.00 64 1013.5
20260831164535 66 360 7.0 9.0 0.00 0.00 0.00 64 1013.5
20260831164018 66 360 6.0 11.0 0.00 0.00 0.00 64 1013.6
20260831163520 66 208 5.0 11.0 0.00 0.00 0.00 65 1013.5
20260831163020 65 360 6.0 10.0 0.00 0.00 0.00 66 1013.5
20260831162517 65 204 6.0 10.0 0.00 0.00 0.00 66 1013.6
20260831162017 64 195 7.0 11.0 0.00 0.00 0.00 66 1013.5
20260831161516 65 218 7.0 11.0 0.00 0.00 0.00 65 1013.5
20260831161016 65 360 7.0 11.0 0.00 0.00 0.00 65 1013.5
20260831160515 65 360 5.0 10.0 0.00 0.00 0.00 66 1013.6
20260831160015 64 360 5.0 10.0 0.00 0.00 0.00 66 1013.7
20260831155515 64 360 6.0 10.0 0.00 0.00 0.00 66 1013.6
20260831155015 64 360 6.0 10.0 0.00 0.00 0.00 66 1013.6
20260831154514 64 360 5.0 10.0 0.00 0.00 0.00 66 1013.6
20260831154015 64 360 4.0 9.0 0.00 0.00 0.00 67 1013.5
20260831153512 63 360 5.0 9.0 0.00 0.00 0.00 67 1013.5
20260831153012 63 360 6.0 11.0 0.00 0.00 0.00 67 1013.5
20260831152515 63 360 7.0 12.0 0.00 0.00 0.00 67 1013.5
20260831152012 63 360 7.0 12.0 0.00 0.00 0.00 67 1013.4
20260831151513 63 360 5.0 10.0 0.00 0.00 0.00 68 1013.5
20260831151012 62 166 4.0 10.0 0.00 0.00 0.00 68 1013.4
20260831150510 62 169 6.0 10.0 0.00 0.00 0.00 68 1013.3
20260831150012 62 186 5.0 11.0 0.00 0.00 0.00 68 1013.3
20260831145511 62 159 5.0 11.0 0.00 0.00 0.00 68 1013.3
20260831145009 62 150 7.0 11.0 0.00 0.00 0.00 68 1013.2
20260831144514 61 168 5.0 9.0 0.00 0.00 0.00 68 1013.2
20260831144007 61 156 6.0 9.0 0.00 0.00 0.00 68 1013.0
20260831143507 61 152 5.0 8.0 0.00 0.00 0.00 68 1013.1
20260831143017 61 148 3.0 7.0 0.00 0.00 0.00 68 1013.0
20260831142506 60 151 3.0 5.0 0.00 0.00 0.00 69 1013.0
20260831142006 60 165 1.0 6.0 0.00 0.00 0.00 69 1013.0
20260831141504 61 164 2.0 12.0 0.00 0.00 0.00 68 1013.0
20260831141003 61 164 5.0 12.0 0.00 0.00 0.00 68 1012.9
20260831140502 61 156 8.0 12.0 0.00 0.00 0.00 66 1012.9
20260831140001 61 151 6.0 10.0 0.00 0.00 0.00 65 1012.8
20260831135600 61 132 6.0 8.0 0.00 0.00 0.00 65 1012.8
20260831135058 61 135 5.0 9.0 0.00 0.00 0.00 64 1012.8
20260831134558 61 134 5.0 9.0 0.00 0.00 0.00 64 1012.7
20260831134057 61 154 5.0 9.0 0.00 0.00 0.00 64 1012.6
20260831133557 61 150 4.0 7.0 0.00 0.00 0.00 64 1012.7
20260831133056 61 144 4.0 7.0 0.00 0.00 0.00 63 1012.6
20260831132555 62 144 4.0 7.0 0.00 0.00 0.00 63 1012.5
20260831132055 62 150 5.0 7.0 0.00 0.00 0.00 63 1012.4
20260831131556 62 157 5.0 8.0 0.00 0.00 0.00 62 1012.4
20260831131052 62 173 5.0 8.0 0.00 0.00 0.00 61 1012.2
20260831130551 62 156 5.0 8.0 0.00 0.00 0.00 61 1012.0
20260831130050 62 154 2.0 6.0 0.00 0.00 0.00 61 1012.0
20260831125550 62 153 2.0 6.0 0.00 0.00 0.00 60 1012.0
20260831125052 62 155 4.0 6.0 0.00 0.00 0.00 60 1012.0
20260831124552 62 154 3.0 5.0 0.00 0.00 0.00 60 1011.9
20260831124048 63 160 3.0 6.0 0.00 0.00 0.00 59 1011.9
20260831123547 63 153 3.0 6.0 0.00 0.00 0.00 59 1011.8
20260831123047 63 163 1.0 5.0 0.00 0.00 0.00 59 1011.8
20260831122545 63 169 1.0 5.0 0.00 0.00 0.00 58 1011.7
20260831122045 63 173 1.0 4.0 0.00 0.00 0.00 58 1011.7
20260831121544 64 132 0.0 2.0 0.00 0.00 0.00 57 1011.7
20260831121043 64 132 0.0 0.0 0.00 0.00 0.00 56 1011.7
20260831120541 65 132 0.0 0.0 0.00 0.00 0.00 56 1011.6
20260831120042 66 132 0.0 2.0 0.00 0.00 0.00 55 1011.6
20260831115538 67 360 1.0 4.0 0.00 0.00 0.00 53 1011.6
20260831115140 68 360 1.0 5.0 0.00 0.00 0.00 52 1011.5
20260831114537 68 360 3.0 6.0 0.00 0.00 0.00 51 1011.4
20260831114036 68 360 3.0 6.0 0.00 0.00 0.00 51 1011.4
20260831113536 68 360 3.0 5.0 0.00 0.00 0.00 52 1011.4
20260831113036 68 360 3.0 5.0 0.00 0.00 0.00 52 1011.4
20260831112538 68 360 2.0 5.0 0.00 0.00 0.00 52 1011.5
20260831112034 68 360 1.0 4.0 0.00 0.00 0.00 52 1011.5
20260831111546 68 360 1.0 4.0 0.00 0.00 0.00 51 1011.5
20260831111034 68 360 1.0 3.0 0.00 0.00 0.00 51 1011.7
20260831110535 68 360 1.0 2.0 0.00 0.00 0.00 50 1011.7
20260831110035 68 103 1.0 5.0 0.00 0.00 0.00 50 1011.8
20260831105533 69 360 2.0 6.0 0.00 0.00 0.00 49 1011.8
20260831105031 69 360 3.0 6.0 0.00 0.00 0.00 49 1011.7
20260831104546 69 360 3.0 6.0 0.00 0.00 0.00 49 1011.6
20260831104030 69 360 2.0 5.0 0.00 0.00 0.00 48 1011.5
20260831103529 69 94 2.0 5.0 0.00 0.00 0.00 48 1011.6
20260831103030 69 108 1.0 5.0 0.00 0.00 0.00 48 1011.7
20260831102529 69 360 1.0 5.0 0.00 0.00 0.00 48 1011.5
20260831102028 69 99 2.0 5.0 0.00 0.00 0.00 48 1011.5
20260831101533 69 101 2.0 5.0 0.00 0.00 0.00 48 1011.6
20260831101028 69 94 1.0 5.0 0.00 0.00 0.00 49 1011.7
20260831100528 69 360 2.0 5.0 0.00 0.00 0.00 49 1011.6
20260831100026 69 360 2.0 4.0 0.00 0.00 0.00 49 1011.7
20260831095526 69 360 1.0 4.0 0.00 0.00 0.00 49 1011.7
20260831095028 69 102 1.0 6.0 0.00 0.00 0.00 49 1011.6
20260831094529 69 360 3.0 6.0 0.00 0.00 0.00 49 1011.6
20260831094025 70 360 4.0 6.0 0.00 0.00 0.00 49 1011.6
20260831093524 70 360 2.0 5.0 0.00 0.00 0.00 49 1011.7
20260831093036 70 74 1.0 5.0 0.00 0.00 0.00 48 1011.7
20260831092522 70 57 1.0 5.0 0.00 0.00 0.00 48 1011.7
20260831092021 70 96 1.0 3.0 0.00 0.00 0.00 49 1011.7
20260831091522 70 107 1.0 5.0 0.00 0.00 0.00 49 1011.7
20260831091023 70 103 2.0 6.0 0.00 0.00 0.00 49 1011.7
20260831090521 70 94 3.0 6.0 0.00 0.00 0.00 49 1011.8
20260831090023 70 98 3.0 5.0 0.00 0.00 0.00 48 1011.8
20260831085521 70 101 2.0 7.0 0.00 0.00 0.00 48 1011.8
20260831085123 70 95 3.0 7.0 0.00 0.00 0.00 48 1011.8
20260831084522 70 108 2.0 5.0 0.00 0.00 0.00 47 1011.8
20260831084018 70 99 3.0 6.0 0.00 0.00 0.00 47 1011.8
20260831083517 70 106 3.0 6.0 0.00 0.00 0.00 47 1011.8
20260831083017 70 102 2.0 5.0 0.00 0.00 0.00 47 1011.8
20260831082518 70 104 2.0 5.0 0.00 0.00 0.00 47 1011.9
20260831082018 71 102 1.0 7.0 0.00 0.00 0.00 47 1011.8
20260831081516 71 102 2.0 7.0 0.00 0.00 0.00 47 1012.0
20260831081016 71 81 2.0 5.0 0.00 0.00 0.00 48 1011.9
20260831080514 71 95 2.0 6.0 0.00 0.00 0.00 48 1011.9
20260831080018 71 105 2.0 6.0 0.00 0.00 0.00 48 1011.9
20260831075513 71 90 2.0 5.0 0.00 0.00 0.00 47 1012.0
20260831075013 71 101 2.0 4.0 0.00 0.00 0.00 47 1012.0
20260831074512 71 96 1.0 3.0 0.00 0.00 0.00 47 1011.9
20260831074011 71 96 1.0 3.0 0.00 0.00 0.00 46 1012.0
20260831073511 72 96 1.0 2.0 0.00 0.00 0.00 46 1011.9
20260831073013 72 96 0.0 2.0 0.00 0.00 0.00 45 1012.0
20260831072510 72 96 0.0 2.0 0.00 0.00 0.00 44 1012.0
20260831072014 72 96 0.0 2.0 0.00 0.00 0.00 45 1012.0
20260831071525 72 96 0.0 2.0 0.00 0.00 0.00 45 1012.0
20260831071008 72 96 0.0 2.0 0.00 0.00 0.00 45 1011.9
20260831070507 72 166 0.0 2.0 0.00 0.00 0.00 45 1012.0
20260831070009 72 167 0.0 2.0 0.00 0.00 0.00 45 1011.9
20260831065506 73 167 0.0 2.0 0.00 0.00 0.00 44 1011.9
20260831065008 73 159 0.0 2.0 0.00 0.00 0.00 44 1012.0
20260831064506 73 159 0.0 2.0 0.00 0.00 0.00 44 1012.1
20260831064006 73 159 0.0 4.0 0.00 0.00 0.00 44 1012.0
20260831063505 73 159 0.0 3.0 0.00 0.00 0.00 44 1012.0
20260831063005 73 161 0.0 1.0 0.00 0.00 0.00 43 1012.0
20260831062505 73 161 0.0 2.0 0.00 0.00 0.00 43 1012.1
20260831062005 73 161 0.0 5.0 0.00 0.00 0.00 44 1012.2
20260831061505 74 161 2.0 5.0 0.00 0.00 0.00 44 1012.1
20260831061005 74 163 1.0 4.0 0.00 0.00 0.00 44 1012.2
20260831060504 74 163 0.0 6.0 0.00 0.00 0.00 44 1012.0
20260831060006 74 144 1.0 6.0 0.00 0.00 0.00 45 1012.1
20260831055505 74 153 1.0 4.0 0.00 0.00 0.00 45 1012.2
20260831055004 74 148 1.0 2.0 0.00 0.00 0.00 46 1012.1
20260831054504 74 148 0.0 2.0 0.00 0.00 0.00 46 1012.1
20260831054006 74 148 0.0 2.0 0.00 0.00 0.00 46 1012.1
20260831053507 74 148 0.0 6.0 0.00 0.00 0.00 46 1012.1
20260831053007 75 148 2.0 6.0 0.00 0.00 0.00 45 1012.1
20260831052503 75 148 1.0 6.0 0.00 0.00 0.00 45 1012.0
20260831052006 75 184 0.0 6.0 0.00 0.00 0.00 45 1012.0
20260831051503 75 171 0.0 6.0 0.00 0.00 0.00 44 1012.0
20260831051104 75 171 1.0 6.0 0.00 0.00 0.00 44 1012.1
20260831050503 76 164 1.0 7.0 0.00 0.00 0.00 43 1012.1
20260831050003 76 153 3.0 7.0 0.00 0.00 0.00 42 1012.0
20260831045503 76 159 3.0 7.0 0.00 0.00 0.00 43 1012.0
20260831045003 76 160 3.0 7.0 0.00 0.00 0.00 43 1012.0
20260831044502 77 156 1.0 5.0 0.00 0.00 0.00 43 1012.0
20260831044002 77 163 1.0 7.0 0.00 0.00 0.00 42 1012.0
20260831043502 77 157 3.0 6.0 0.00 0.00 0.00 42 1012.0
20260831043003 77 163 2.0 6.0 0.00 0.00 0.00 42 1011.9
20260831042502 76 155 3.0 6.0 0.00 0.00 0.00 43 1011.8
20260831042002 76 165 2.0 7.0 0.00 0.00 0.00 44 1011.9
20260831041502 75 142 3.0 7.0 0.00 0.00 0.00 44 1011.8
20260831041104 75 157 1.0 9.0 0.00 0.00 0.00 45 1011.8
20260831040600 77 191 3.0 9.0 0.00 0.00 0.00 44 1011.8
20260831040059 80 320 0.0 2.0 0.00 0.00 0.00 38 1011.5
20260831035601 80 320 0.0 2.0 0.00 0.00 0.00 38 1011.5
20260831035059 81 320 0.0 2.0 0.00 0.00 0.00 38 1011.4
20260831034603 81 320 0.0 1.0 0.00 0.00 0.00 38 1011.4
20260831034059 81 320 0.0 2.0 0.00 0.00 0.00 37 1011.3
20260831033559 81 320 0.0 2.0 0.00 0.00 0.00 37 1011.3
20260831033108 81 320 0.0 1.0 0.00 0.00 0.00 37 1011.4
20260831032559 81 320 0.0 1.0 0.00 0.00 0.00 37 1011.4
20260831032059 81 319 0.0 1.0 0.00 0.00 0.00 37 1011.2
20260831031558 81 319 0.0 1.0 0.00 0.00 0.00 37 1011.3
20260831031058 81 319 0.0 0.0 0.00 0.00 0.00 37 1011.3
20260831030558 81 319 0.0 0.0 0.00 0.00 0.00 36 1011.2
20260831030059 82 319 0.0 1.0 0.00 0.00 0.00 36 1011.2
20260831025558 82 319 0.0 1.0 0.00 0.00 0.00 36 1011.1
20260831025058 82 319 0.0 1.0 0.00 0.00 0.00 36 1011.0
20260831024558 83 319 0.0 1.0 0.00 0.00 0.00 37 1011.0
20260831024058 83 319 0.0 2.0 0.00 0.00 0.00 37 1011.1
20260831023558 84 319 0.0 1.0 0.00 0.00 0.00 36 1011.0
20260831023057 85 319 0.0 1.0 0.00 0.00 0.00 36 1011.0
20260831022559 85 319 0.0 2.0 0.00 0.00 0.00 36 1011.0
20260831022056 86 320 0.0 2.0 0.00 0.00 0.00 36 1011.0
20260831021556 86 315 0.0 2.0 0.00 0.00 0.00 35 1011.0
20260831021056 87 315 0.0 1.0 0.00 0.00 0.00 35 1011.1
20260831020559 87 338 0.0 2.0 0.00 0.00 0.00 36 1011.0
20260831020055 87 271 0.0 5.0 0.00 0.00 0.00 35 1011.1
20260831015658 87 271 0.0 5.0 0.00 0.00 0.00 35 1011.1
20260831015053 87 271 0.0 5.0 0.00 0.00 0.00 35 1011.0
20260831014553 87 269 0.0 5.0 0.00 0.00 0.00 35 1011.1
20260831014053 87 271 0.0 5.0 0.00 0.00 0.00 36 1011.1
20260831013552 87 275 1.0 7.0 0.00 0.00 0.00 36 1011.1
20260831013053 87 252 4.0 7.0 0.00 0.00 0.00 35 1011.0
20260831012553 87 246 4.0 7.0 0.00 0.00 0.00 35 1011.1
20260831012052 87 254 1.0 6.0 0.00 0.00 0.00 34 1011.1
20260831011552 87 263 3.0 7.0 0.00 0.00 0.00 35 1011.2
20260831011051 87 233 4.0 7.0 0.00 0.00 0.00 34 1011.2
20260831010550 87 215 4.0 9.0 0.00 0.00 0.00 34 1011.1
20260831010050 88 218 5.0 9.0 0.00 0.00 0.00 31 1011.2
20260831005551 88 219 5.0 9.0 0.00 0.00 0.00 28 1011.2
20260831005053 89 269 1.0 7.0 0.00 0.00 0.00 30 1011.2
20260831004548 88 265 2.0 6.0 0.00 0.00 0.00 32 1011.2
20260831004051 88 189 3.0 8.0 0.00 0.00 0.00 31 1011.3
20260831003547 88 209 4.0 8.0 0.00 0.00 0.00 27 1011.3
20260831003051 88 211 4.0 7.0 0.00 0.00 0.00 27 1011.3
20260831002547 88 198 3.0 9.0 0.00 0.00 0.00 27 1011.3
20260831002047 88 229 5.0 9.0 0.00 0.00 0.00 27 1011.3
20260831001546 89 193 6.0 8.0 0.00 0.00 0.00 26 1011.4
20260831001045 89 238 5.0 7.0 0.00 0.00 0.00 28 1011.5
20260831000544 89 259 1.0 6.0 0.00 0.00 0.00 27 1011.4
20260831000043 88 260 3.0 7.0 0.00 0.00 0.00 27 1011.4
20260830235546 88 275 5.0 8.0 0.00 0.00 0.00 26 1011.5
20260830235042 88 256 2.0 9.0 0.00 0.00 0.00 27 1011.5
20260830234555 88 188 4.0 10.0 0.00 0.00 0.00 27 1011.5
20260830234041 88 183 4.0 10.0 0.00 0.00 0.00 28 1011.6
20260830233541 88 271 3.0 7.0 0.00 0.00 0.00 27 1011.6
20260830233040 88 250 1.0 10.0 0.00 0.00 0.00 26 1011.7
20260830232540 88 197 7.0 10.0 0.00 0.00 0.00 26 1011.8